LEMUR-2-WINGO (41874 NORAD) Tracking and Keplerian Element Data

This shows tracking and keplerian element data for the satellite.

Feedback or suggestion? Click here.




ElementValue
Catalog41874
NameLEMUR-2-WINGO
Epoch Orbit35780
Epoch Day112.70379322
Epoch Year2023
RAAN269.3404
Inclination51.6237
Eccentricity0.0011923
Argument of Perigee289.2805
Mean Anonmoly70.692
Mean Motion16.12392419
Decay Rate0.02097641
L11 41874U 16062F 23112.70379322 .02097641 43147-2 19550-2 0 9993
L22 41874 51.6237 269.3404 0011923 289.2805 70.6920 16.12392419357803



Live tracking and technical data element details for LEMUR-2-WINGO (NORAD 41874). LEMUR-2-WINGO can be tracked NOW for your location showing map with azimuth and elevation plus other details from your city location.







IsCatalogInMostPopularTable: catalog: 41874, numindb: 357
Update: records affected: 1



GetName: 41874 LEMUR-2-WINGO

Hit Count: updated at: Sat, 17 May 2025 09:43:05 GMT